Mountain Home, Arkansas, United States (72653)
Lat: 36.34N, Lon: 92.39W
Wx Zone: ARZ005
Local Info
Past Weather Observations for Tuesday, November 18, 2014

NOTE: This archive is for the closest National Weather Service station to Mountain Home. Information may differ from the station used for current weather conditions.

Click here for Long-term Archive

Time Weather Temperature Dewpoint Humidity Pressure Winds Precip Visibility
23:53
Clear
32°F / 0°C 19°F / -7°C 60% 30.15 in
(1021 mb)
SSE 6.9 mph
(SSE 11 kph)
- 10SM
22:53
Clear
30°F / -1°C 19°F / -7°C 64% 30.15 in
(1021 mb)
S 5.8 mph
(S 9 kph)
- 10SM
21:53
Clear
30°F / -1°C 18°F / -8°C 59% 30.18 in
(1022 mb)
S 5.8 mph
(S 9 kph)
- 10SM
20:53
Clear
32°F / 0°C 18°F / -8°C 55% 30.21 in
(1023 mb)
S 5.8 mph
(S 9 kph)
- 10SM
19:53
Clear
34°F / 1°C 18°F / -8°C 51% 30.21 in
(1023 mb)
SSE 6.9 mph
(SSE 11 kph)
- 10SM
18:53
Clear
34°F / 1°C 18°F / -8°C 51% 30.21 in
(1023 mb)
SSE 6.9 mph
(SSE 11 kph)
- 10SM
17:53
Clear
34°F / 1°C 18°F / -8°C 51% 30.21 in
(1023 mb)
S 4.6 mph
(S 7 kph)
- 10SM
16:53
Clear
36°F / 2°C 18°F / -8°C 48% 30.21 in
(1023 mb)
SSE 3.5 mph
(SSE 6 kph)
- 10SM
15:53
Clear
39°F / 4°C 18°F / -8°C 42% 30.24 in
(1024 mb)
SSE 6.9 mph
(SSE 11 kph)
- 10SM
14:53
Clear
37°F / 3°C 16°F / -9°C 41% 30.27 in
(1025 mb)
Variable 4.6 mph
(Variable 7 kph)
- 10SM
13:53
Clear
36°F / 2°C 16°F / -9°C 44% 30.27 in
(1025 mb)
S 6.9 mph
(S 11 kph)
- 10SM
12:53
Clear
34°F / 1°C 12°F / -11°C 41% 30.3 in
(1026 mb)
SSW 6.9 mph
(SSW 11 kph)
- 10SM
11:53
Clear
30°F / -1°C 10°F / -12°C 43% 30.36 in
(1028 mb)
Variable 3.5 mph
(Variable 6 kph)
- 10SM
10:53
Clear
30°F / -1°C 12°F / -11°C 47% 30.39 in
(1029 mb)
Variable 4.6 mph
(Variable 7 kph)
- 10SM
09:53
Clear
25°F / -4°C 10°F / -12°C 54% 30.42 in
(1030 mb)
Variable 4.6 mph
(Variable 7 kph)
- 10SM
08:53
Clear
21°F / -6°C 12°F / -11°C 68% 30.42 in
(1030 mb)
Variable 3.5 mph
(Variable 6 kph)
- 10SM
07:53
Clear
18°F / -8°C 10°F / -12°C 73% 30.39 in
(1029 mb)
SSW 4.6 mph
(SSW 7 kph)
- 10SM
06:53
Clear
16°F / -9°C 9°F / -13°C 73% 30.39 in
(1029 mb)
SSW 3.5 mph
(SSW 6 kph)
- 10SM
05:53
Clear
14°F / -10°C 9°F / -13°C 79% 30.36 in
(1028 mb)
Calm - 10SM
04:53
Clear
18°F / -8°C 9°F / -13°C 68% 30.33 in
(1027 mb)
Variable 3.5 mph
(Variable 6 kph)
- 10SM
03:53
Clear
18°F / -8°C 9°F / -13°C 68% 30.33 in
(1027 mb)
Variable 3.5 mph
(Variable 6 kph)
- 10SM
02:53
Clear
19°F / -7°C 9°F / -13°C 63% 30.33 in
(1027 mb)
Variable 3.5 mph
(Variable 6 kph)
- 10SM
01:53
Clear
18°F / -8°C 9°F / -13°C 68% 30.33 in
(1027 mb)
Calm - 10SM
00:53
Clear
19°F / -7°C 9°F / -13°C 63% 30.33 in
(1027 mb)
Calm - 10SM
Time Weather Temperature Dewpoint Humidity Pressure Winds Precip Visibility


Weather for websites

WeatherForYou.com, LLC is not responsible for any damages or problems caused by this service. Current weather conditions are obtained from the closest station including government and personal stations which may have varying degrees of accuracy. Weather forecasts are derived from the NOAA NDFD. Like all things, this site belongs to Jesus Christ... He just trusts me to maintain it. If you have any questions or comments email webmaster@weatherforyou.com

Copyright © 2014, WeatherForYou.com LLC. All rights reserved.